Skip Page Navigation
NASA JPL Caltech
NASA Logo - Jet Propulsion Laboratory + View the NASA Portal
+ Center for Near-Earth Object Studies
JPL Home Earth Solar System Stars & Galaxies Technology
JPL Solar System Dynamics
BODIES ORBITS EPHEMERIDES TOOLS PHYSICAL DATA DISCOVERY FAQ SITE MAP
JPL Small-Body Database Browser
Search: [ help ]  
17062 Bardot (1999 GR8)
Classification: Main-belt Asteroid          SPK-ID: 2017062
Ephemeris | Orbit Diagram | Orbital Elements | Mission Design | Physical Parameters | Discovery Circumstances | Close-Approach Data ]

[ show orbit diagram ]
Orbital Elements at Epoch 2459200.5 (2020-Dec-17.0) TDB
Reference: JPL 33 (heliocentric ecliptic J2000)
 Element Value Uncertainty (1-sigma)   Units 
e .02933047678328439 3.4916e-08  
a 3.146627394017025 1.7847e-08 au
q 3.054335312291162 1.1149e-07 au
i 4.261995551759328 4.0669e-06 deg
node 113.8905015337583 5.1872e-05 deg
peri 174.4173849984386 8.9417e-05 deg
M 244.5228874924865 7.4356e-05 deg
tp 2459854.473003695816
(2022-Oct-01.97300370)
0.0004222 TDB
period 2038.761415299291
5.58
1.7345e-05
4.749e-08
d
yr
n .1765777973324809 1.5023e-09 deg/d
Q 3.238919475742888 1.8371e-08 au
  Orbit Determination Parameters
   # obs. used (total)      1744  
   data-arc span      9330 days (25.54 yr)  
   first obs. used      1995-08-29  
   last obs. used      2021-03-15  
   planetary ephem.      DE441  
   SB-pert. ephem.      SB441-N16  
   condition code      0  
   norm. resid. RMS      .51709  
   source      ORB  
   producer      Otto Matic  
   solution date      2021-Apr-13 01:52:34  

Additional Information
 Earth MOID = 2.03608 au 
 Jupiter MOID = 1.8115 au 
 T_jup = 3.204 
[ show covariance matrix ]

Ephemeris | Orbit Diagram | Orbital Elements | Mission Design | Physical Parameters | Discovery Circumstances | Close-Approach Data ]

Physical Parameter Table
Parameter Symbol Value Units Sigma Reference Notes
absolute magnitude H 13.66   n/a E2021B10  
diameter diameter 11.162 km 0.106 urn:nasa:pds:neowise_diameters_albedos::2.0[mainbelt] (http://adsabs.harvard.edu/abs/2011ApJ...741...68M)  
geometric albedo albedo 0.036   0.005 urn:nasa:pds:neowise_diameters_albedos::2.0[mainbelt] (http://adsabs.harvard.edu/abs/2011ApJ...741...68M)  

17062 Bardot           Discovered 1999 Apr. 10 by the Lowell Observatory Near-Earth Object Search at the Anderson Mesa Station.
Brigitte Bardot (b. 1934) is a French movie star and a leading spokesperson for animal rights.
NOTE: some special characters may not display properly (any characters within {} are an attempt to place the proper accent above a character)
Reference: 20050721/MPCPages.arcLast Updated: 2005-07-21

[ show close-approach data ]
Alternate Designations
 1999 GR8 = 1998 BT29 
Ephemeris | Orbit Diagram | Orbital Elements | Mission Design | Physical Parameters | Discovery Circumstances | Close-Approach Data ]
ABOUT SSD CREDITS/AWARDS PRIVACY/COPYRIGHT GLOSSARY LINKS
FirstGov 2021-Apr-14 16:28 UT
(server date/time)  
NASA Home Page
Site Manager:   Ryan S. Park
Webmaster  Alan B. Chamberlin